TimeCDT,TemperatureF,Dew PointF,Humidity,Sea Level PressureIn,VisibilityMPH,Wind Direction,Wind SpeedMPH,Gust SpeedMPH,PrecipitationIn,Events,Conditions,WindDirDegrees,DateUTC
12:08 AM,71.6,69.8,94,30.08,5.0,West,6.9,-,N/A,Rain-Thunderstorm,Thunderstorms and Rain,260,2013-09-11 05:08:00
12:13 AM,71.6,69.8,94,30.08,2.0,WNW,10.4,-,N/A,Rain-Thunderstorm,Heavy Thunderstorms and Rain,290,2013-09-11 05:13:00
12:18 AM,71.6,69.8,94,30.08,1.5,WNW,16.1,-,N/A,Rain-Thunderstorm,Heavy Thunderstorms and Rain,290,2013-09-11 05:18:00
12:23 AM,71.6,69.8,94,30.08,1.5,WNW,10.4,-,N/A,Rain-Thunderstorm,Heavy Thunderstorms and Rain,290,2013-09-11 05:23:00
12:29 AM,69.8,68.0,94,30.09,2.0,West,10.4,-,N/A,Rain-Thunderstorm,Thunderstorms and Rain,270,2013-09-11 05:29:00
12:45 AM,69.8,68.0,94,30.07,6.0,West,6.9,-,N/A,Rain-Thunderstorm,Light Rain,280,2013-09-11 05:45:00
12:55 AM,69.8,68.0,94,30.06,7.0,NW,6.9,-,N/A,Rain,Rain,320,2013-09-11 05:55:00
12:58 AM,69.6,68.7,97,30.05,8.0,WNW,5.8,-,0.56,Rain,Light Rain,300,2013-09-11 05:58:00
1:09 AM,69.8,68.0,94,30.07,9.0,WNW,3.5,-,N/A,Rain,Light Rain,300,2013-09-11 06:09:00
1:18 AM,69.8,68.0,94,30.06,9.0,NNE,1.2,-,N/A,Rain,Rain,20,2013-09-11 06:18:00
1:38 AM,69.8,69.8,100,30.07,10.0,SSE,5.8,-,N/A,Rain-Thunderstorm,Light Rain,150,2013-09-11 06:38:00
1:48 AM,69.8,69.8,100,30.07,9.0,ESE,5.8,-,N/A,Rain-Thunderstorm,Rain,120,2013-09-11 06:48:00
1:53 AM,69.8,69.8,100,30.07,8.0,East,2.3,-,N/A,Rain,Rain,90,2013-09-11 06:53:00
1:58 AM,69.8,69.8,100,30.06,8.0,East,2.3,-,0.07,Rain,Rain,100,2013-09-11 06:58:00
2:03 AM,69.8,69.8,100,30.07,7.0,Calm,Calm,-,N/A,Rain,Rain,0,2013-09-11 07:03:00
2:28 AM,71.6,69.8,94,30.09,5.0,WSW,12.7,-,N/A,Rain-Thunderstorm,Rain,250,2013-09-11 07:28:00
2:48 AM,71.6,69.8,94,30.09,5.0,West,6.9,-,N/A,Rain,Rain,260,2013-09-11 07:48:00
2:53 AM,71.6,69.8,94,30.09,5.0,West,3.5,-,N/A,Rain,Heavy Rain,260,2013-09-11 07:53:00
2:58 AM,70.9,70.2,98,30.06,5.0,WSW,4.6,-,0.16,Rain,Heavy Rain,240,2013-09-11 07:58:00
3:03 AM,71.6,69.8,94,30.08,6.0,SW,3.5,-,N/A,Rain,Rain,230,2013-09-11 08:03:00
3:08 AM,71.6,69.8,94,30.08,8.0,SSW,4.6,-,N/A,Rain,Light Rain,210,2013-09-11 08:08:00
3:23 AM,71.6,71.6,100,30.07,10.0,SSW,3.5,-,N/A,Rain,Light Rain,210,2013-09-11 08:23:00
3:53 AM,71.6,69.8,94,30.06,9.0,SSW,9.2,-,N/A,Rain,Rain,210,2013-09-11 08:53:00
3:58 AM,72.3,69.3,90,30.04,10.0,SSW,6.9,-,0.07,Rain,Light Rain,210,2013-09-11 08:58:00
4:45 AM,71.6,69.8,94,30.06,10.0,Calm,Calm,-,N/A,,Clear,0,2013-09-11 09:45:00
4:58 AM,70.5,69.8,98,30.04,10.0,North,3.5,-,0.01,,Clear,10,2013-09-11 09:58:00
5:58 AM,71.1,69.1,93,30.06,10.0,NW,1.2,-,N/A,,Clear,310,2013-09-11 10:58:00
6:58 AM,70.3,69.4,97,30.06,10.0,SSW,2.3,-,N/A,,Clear,200,2013-09-11 11:58:00
7:58 AM,70.3,70.0,99,30.07,10.0,SE,2.3,-,N/A,,Clear,140,2013-09-11 12:58:00
8:58 AM,72.5,72.1,99,30.09,10.0,South,2.3,-,N/A,,Mostly Cloudy,180,2013-09-11 13:58:00
9:58 AM,75.4,72.7,91,30.10,10.0,Variable,1.2,-,N/A,,Mostly Cloudy,0,2013-09-11 14:58:00
10:58 AM,77.5,70.5,79,30.10,10.0,NW,4.6,-,N/A,,Mostly Cloudy,320,2013-09-11 15:58:00
11:38 AM,78.8,69.8,74,30.11,10.0,West,3.5,-,N/A,,Mostly Cloudy,280,2013-09-11 16:38:00
11:48 AM,78.8,69.8,74,30.11,10.0,NW,3.5,-,N/A,,Mostly Cloudy,310,2013-09-11 16:48:00
11:53 AM,78.8,69.8,74,30.11,10.0,NW,5.8,-,N/A,,Mostly Cloudy,310,2013-09-11 16:53:00
11:58 AM,79.9,70.5,73,30.10,10.0,NW,4.6,-,N/A,,Mostly Cloudy,310,2013-09-11 16:58:00
12:58 PM,81.3,70.5,70,30.09,10.0,East,3.5,-,N/A,,Mostly Cloudy,80,2013-09-11 17:58:00
1:13 PM,80.6,71.6,74,30.11,10.0,Variable,5.8,-,N/A,,Mostly Cloudy,0,2013-09-11 18:13:00
1:58 PM,81.3,71.2,71,30.09,10.0,NE,4.6,-,N/A,,Mostly Cloudy,40,2013-09-11 18:58:00
2:58 PM,83.1,70.3,65,30.08,10.0,North,4.6,-,N/A,,Overcast,10,2013-09-11 19:58:00
3:58 PM,82.2,69.8,66,30.08,10.0,NNE,4.6,-,N/A,,Overcast,20,2013-09-11 20:58:00
4:42 PM,80.6,68.0,65,30.05,10.0,North,11.5,-,N/A,Rain,Light Rain Showers,360,2013-09-11 21:42:00
4:58 PM,78.3,66.4,67,30.08,10.0,North,8.1,-,0.00,Rain,Light Rain Showers,10,2013-09-11 21:58:00
5:04 PM,77.0,66.2,69,30.06,10.0,North,6.9,-,N/A,,Overcast,10,2013-09-11 22:04:00
5:17 PM,77.0,66.2,69,30.06,10.0,NNE,6.9,-,N/A,Rain,Light Rain Showers,20,2013-09-11 22:17:00
5:58 PM,76.6,67.3,73,30.08,10.0,NNE,3.5,-,0.00,,Mostly Cloudy,20,2013-09-11 22:58:00
6:58 PM,75.6,69.1,80,30.06,10.0,NE,4.6,-,N/A,,Mostly Cloudy,40,2013-09-11 23:58:00
7:58 PM,74.8,67.8,79,30.06,10.0,North,3.5,-,N/A,,Partly Cloudy,10,2013-09-12 00:58:00
8:58 PM,74.5,67.3,78,30.08,10.0,ENE,1.2,-,N/A,,Partly Cloudy,60,2013-09-12 01:58:00
9:58 PM,73.9,68.4,83,30.09,10.0,Calm,Calm,-,N/A,,Mostly Cloudy,0,2013-09-12 02:58:00
10:58 PM,75.4,68.5,79,30.10,10.0,West,4.6,-,N/A,,Mostly Cloudy,260,2013-09-12 03:58:00
11:58 PM,73.4,69.4,87,30.11,10.0,Calm,Calm,-,N/A,,Mostly Cloudy,0,2013-09-12 04:58:00